Location: Peterborough
(44.3091°N, 78.3197°W)
Time: 01:34:08
(UTC-04:00)

SR - Pass Details

Date: 30 March 2023
Orbit: 581 x 867 km, 66.7° (Epoch: 02 June)

Event Time Altitude Azimuth Distance (km) Brightness Sun altitude
Rises 01:29:07 0° 185° (S) 3,012 - -42.0°
Reaches altitude 10° 01:31:41 10° 175° (S) 2,055 - -41.9°
Maximum altitude 01:35:44 31° 114° (ESE) 1,099 - -41.8°
Drops below altitude 10° 01:39:36 10° 52° (NE) 1,952 - -41.8°
Exits shadow 01:41:13 - 44° (NE) 2,546 ? -41.7°
Sets 01:41:58 0° 41° (NE) 2,835 ? -41.7°
